| time (UTC) | temp F | wind direction | speed MPH | gust MPH | rain 1hr in | rain 24hr in | rain mn in | humidity % | barometer mb |
| 20260905055230 | 76 | 0 | 0.0 | 1.0 | 0.00 | 1.08 | 0.00 | 95 | 1012.8 |
| 20260905054730 | 76 | 0 | 0.0 | 1.0 | 0.00 | 1.08 | 0.00 | 95 | 1012.9 |
| 20260905054229 | 76 | 0 | 0.0 | 1.0 | 0.00 | 1.08 | 0.00 | 95 | 1012.9 |
| 20260905053729 | 76 | 114 | 0.0 | 2.0 | 0.00 | 1.08 | 0.00 | 95 | 1013.0 |
| 20260905052730 | 76 | 192 | 0.0 | 2.0 | 0.00 | 1.08 | 0.00 | 95 | 1013.0 |
| 20260905052230 | 76 | 0 | 0.0 | 2.0 | 0.00 | 1.08 | 0.00 | 95 | 1013.1 |
| 20260905051730 | 76 | 0 | 0.0 | 2.0 | 0.00 | 1.08 | 0.00 | 95 | 1013.1 |
| 20260905051230 | 76 | 175 | 0.0 | 2.0 | 0.00 | 1.08 | 0.00 | 95 | 1013.1 |
| 20260905050231 | 76 | 0 | 0.0 | 2.0 | 0.00 | 1.08 | 0.00 | 95 | 1013.1 |
| 20260905045230 | 76 | 0 | 0.0 | 3.0 | 0.00 | 1.08 | 0.00 | 95 | 1013.2 |
| 20260905044730 | 76 | 0 | 1.0 | 3.0 | 0.00 | 1.08 | 0.00 | 95 | 1013.2 |
| 20260905043729 | 76 | 0 | 0.0 | 1.0 | 0.00 | 1.08 | 0.00 | 95 | 1013.3 |
| 20260905043231 | 76 | 0 | 0.0 | 2.0 | 0.00 | 1.08 | 0.00 | 95 | 1013.2 |
| 20260905042731 | 76 | 0 | 1.0 | 4.0 | 0.00 | 1.08 | 0.00 | 95 | 1013.2 |
| 20260905042231 | 76 | 0 | 1.0 | 4.0 | 0.00 | 1.08 | 0.00 | 95 | 1013.2 |
| 20260905041730 | 77 | 71 | 0.0 | 2.0 | 0.00 | 1.08 | 0.00 | 95 | 1013.1 |
| 20260905041229 | 77 | 0 | 0.0 | 1.0 | 0.00 | 1.08 | 0.00 | 95 | 1013.0 |
| 20260905040729 | 77 | 0 | 0.0 | 2.0 | 0.00 | 1.08 | 0.00 | 95 | 1013.1 |
| 20260905035730 | 77 | 0 | 1.0 | 3.0 | 0.00 | 1.08 | 1.08 | 95 | 1013.0 |
| 20260905035230 | 77 | 214 | 1.0 | 3.0 | 0.00 | 1.08 | 1.08 | 95 | 1013.1 |
| 20260905034730 | 77 | 0 | 0.0 | 2.0 | 0.00 | 1.08 | 1.08 | 95 | 1013.2 |
| 20260905034229 | 77 | 0 | 1.0 | 2.0 | 0.00 | 1.08 | 1.08 | 95 | 1013.2 |
| 20260905033730 | 77 | 188 | 0.0 | 2.0 | 0.00 | 1.08 | 1.08 | 95 | 1013.2 |
| 20260905033231 | 77 | 208 | 0.0 | 2.0 | 0.00 | 1.08 | 1.08 | 95 | 1013.2 |
| 20260905032730 | 77 | 0 | 0.0 | 0.0 | 0.00 | 1.08 | 1.08 | 95 | 1013.2 |
| 20260905031729 | 77 | 0 | 0.0 | 0.0 | 0.00 | 1.08 | 1.08 | 94 | 1013.4 |
| 20260905031229 | 77 | 0 | 0.0 | 0.0 | 0.00 | 1.08 | 1.08 | 95 | 1013.6 |
| 20260905030231 | 77 | 0 | 0.0 | 0.0 | 0.00 | 1.08 | 1.08 | 94 | 1013.6 |
| 20260905025731 | 77 | 0 | 0.0 | 0.0 | 0.00 | 1.08 | 1.08 | 94 | 1013.7 |
| 20260905025230 | 77 | 0 | 0.0 | 0.0 | 0.00 | 1.08 | 1.08 | 94 | 1013.8 |
| 20260905024230 | 76 | 0 | 0.0 | 0.0 | 0.00 | 1.08 | 1.08 | 94 | 1013.8 |
| 20260905023729 | 76 | 0 | 0.0 | 0.0 | 0.00 | 1.08 | 1.08 | 94 | 1013.9 |
| 20260905023230 | 76 | 0 | 0.0 | 2.0 | 0.00 | 1.08 | 1.08 | 94 | 1013.9 |
| 20260905022734 | 76 | 0 | 0.0 | 2.0 | 0.00 | 1.08 | 1.08 | 94 | 1013.9 |
| 20260905022231 | 76 | 0 | 0.0 | 2.0 | 0.00 | 1.08 | 1.08 | 94 | 1013.8 |
| 20260905021730 | 76 | 194 | 0.0 | 2.0 | 0.00 | 1.08 | 1.08 | 94 | 1013.9 |
| 20260905020729 | 76 | 67 | 0.0 | 2.0 | 0.00 | 1.08 | 1.08 | 94 | 1014.0 |
| 20260905020230 | 76 | 0 | 0.0 | 2.0 | 0.00 | 1.08 | 1.08 | 94 | 1013.9 |
| 20260905015729 | 76 | 196 | 1.0 | 4.0 | 0.00 | 1.08 | 1.08 | 94 | 1013.8 |
| 20260905015229 | 76 | 0 | 1.0 | 4.0 | 0.00 | 1.08 | 1.08 | 94 | 1013.8 |
| 20260905014729 | 76 | 186 | 0.0 | 2.0 | 0.00 | 1.08 | 1.08 | 94 | 1013.7 |
| 20260905014228 | 76 | 0 | 1.0 | 3.0 | 0.00 | 1.08 | 1.08 | 94 | 1013.7 |
| 20260905013230 | 76 | 0 | 0.0 | 2.0 | 0.00 | 1.08 | 1.08 | 94 | 1013.7 |
| 20260905012729 | 76 | 0 | 0.0 | 2.0 | 0.00 | 1.08 | 1.08 | 94 | 1013.6 |
| 20260905012229 | 76 | 165 | 0.0 | 2.0 | 0.00 | 1.08 | 1.08 | 94 | 1013.6 |
| 20260905011729 | 76 | 0 | 0.0 | 2.0 | 0.00 | 1.08 | 1.08 | 94 | 1013.6 |
| 20260905011229 | 76 | 0 | 0.0 | 1.0 | 0.00 | 1.08 | 1.08 | 94 | 1013.6 |
| 20260905010732 | 76 | 0 | 0.0 | 0.0 | 0.00 | 1.08 | 1.08 | 94 | 1013.5 |
| 20260905005729 | 76 | 0 | 0.0 | 1.0 | 0.00 | 1.08 | 1.08 | 94 | 1013.4 |
| 20260905005228 | 76 | 0 | 0.0 | 1.0 | 0.00 | 1.08 | 1.08 | 94 | 1013.3 |
| 20260905004729 | 76 | 0 | 0.0 | 1.0 | 0.00 | 1.08 | 1.08 | 94 | 1013.2 |
| 20260905004228 | 76 | 0 | 0.0 | 1.0 | 0.00 | 1.08 | 1.08 | 94 | 1013.2 |
| 20260905003728 | 76 | 0 | 0.0 | 1.0 | 0.00 | 1.08 | 1.08 | 94 | 1013.2 |
| 20260905003229 | 76 | 0 | 0.0 | 1.0 | 0.00 | 1.08 | 1.08 | 94 | 1013.2 |
| 20260905002731 | 76 | 241 | 0.0 | 1.0 | 0.00 | 1.08 | 1.08 | 94 | 1013.3 |
| 20260905002229 | 76 | 0 | 0.0 | 0.0 | 0.00 | 1.08 | 1.08 | 94 | 1013.3 |
| 20260905001233 | 76 | 0 | 1.0 | 2.0 | 0.00 | 1.08 | 1.08 | 94 | 1013.2 |
| 20260905000728 | 76 | 146 | 1.0 | 2.0 | 0.00 | 1.08 | 1.08 | 94 | 1013.1 |
| 20260905000229 | 76 | 173 | 1.0 | 2.0 | 0.00 | 1.08 | 1.08 | 94 | 1013.1 |
| 20260904235729 | 76 | 160 | 0.0 | 2.0 | 0.00 | 1.08 | 1.08 | 94 | 1013.0 |
| 20260904234729 | 76 | 308 | 1.0 | 2.0 | 0.00 | 1.08 | 1.08 | 94 | 1013.0 |
| 20260904234229 | 76 | 208 | 0.0 | 2.0 | 0.00 | 1.08 | 1.08 | 93 | 1013.0 |
| 20260904233728 | 76 | 0 | 0.0 | 2.0 | 0.00 | 1.08 | 1.08 | 93 | 1013.1 |
| 20260904233229 | 76 | 0 | 0.0 | 2.0 | 0.00 | 1.08 | 1.08 | 93 | 1013.2 |
| 20260904232729 | 76 | 0 | 0.0 | 2.0 | 0.00 | 1.08 | 1.08 | 93 | 1013.3 |
| 20260904232229 | 76 | 18 | 0.0 | 2.0 | 0.00 | 1.08 | 1.08 | 93 | 1013.4 |
| 20260904231729 | 76 | 0 | 0.0 | 1.0 | 0.00 | 1.08 | 1.08 | 93 | 1013.3 |
| 20260904231228 | 76 | 0 | 0.0 | 0.0 | 0.00 | 1.08 | 1.08 | 93 | 1013.3 |
| 20260904230729 | 76 | 0 | 0.0 | 2.0 | 0.00 | 1.08 | 1.08 | 93 | 1013.3 |
| 20260904230229 | 76 | 0 | 0.0 | 2.0 | 0.00 | 1.08 | 1.08 | 93 | 1013.3 |
| 20260904225729 | 76 | 191 | 0.0 | 1.0 | 0.00 | 1.08 | 1.08 | 93 | 1013.1 |
| 20260904225229 | 76 | 118 | 0.0 | 1.0 | 0.00 | 1.08 | 1.08 | 93 | 1013.0 |
| 20260904224729 | 76 | 196 | 0.0 | 2.0 | 0.00 | 1.08 | 1.08 | 93 | 1013.0 |
| 20260904224229 | 76 | 0 | 1.0 | 4.0 | 0.00 | 1.08 | 1.08 | 93 | 1013.2 |
| 20260904223229 | 76 | 264 | 1.0 | 3.0 | 0.00 | 1.08 | 1.08 | 93 | 1013.2 |
| 20260904222729 | 76 | 327 | 1.0 | 3.0 | 0.00 | 1.08 | 1.08 | 93 | 1013.3 |
| 20260904222229 | 77 | 241 | 2.0 | 5.0 | 0.00 | 1.08 | 1.08 | 93 | 1013.4 |
| 20260904221230 | 77 | 323 | 2.0 | 5.0 | 0.00 | 1.08 | 1.08 | 93 | 1013.3 |
| 20260904220730 | 78 | 232 | 2.0 | 4.0 | 0.00 | 1.08 | 1.08 | 93 | 1013.3 |
| 20260904220230 | 78 | 274 | 2.0 | 3.0 | 0.00 | 1.08 | 1.08 | 93 | 1013.2 |
| 20260904215729 | 78 | 273 | 2.0 | 3.0 | 0.01 | 1.08 | 1.08 | 93 | 1013.4 |
| 20260904214730 | 78 | 267 | 1.0 | 3.0 | 0.01 | 1.08 | 1.08 | 93 | 1013.1 |
| 20260904214229 | 78 | 247 | 2.0 | 3.0 | 0.01 | 1.08 | 1.08 | 93 | 1013.1 |
| 20260904213729 | 78 | 230 | 2.0 | 4.0 | 0.01 | 1.08 | 1.08 | 93 | 1013.1 |
| 20260904212730 | 78 | 283 | 1.0 | 3.0 | 0.01 | 1.08 | 1.08 | 93 | 1012.8 |
| 20260904212230 | 79 | 296 | 0.0 | 1.0 | 0.01 | 1.08 | 1.08 | 93 | 1012.9 |
| 20260904211730 | 78 | 0 | 0.0 | 2.0 | 0.01 | 1.08 | 1.08 | 93 | 1013.0 |
| 20260904211229 | 78 | 0 | 1.0 | 3.0 | 0.01 | 1.08 | 1.08 | 93 | 1013.2 |
| 20260904210230 | 78 | 1 | 2.0 | 6.0 | 0.01 | 1.08 | 1.08 | 93 | 1013.3 |
| 20260904205729 | 79 | 254 | 1.0 | 6.0 | 0.00 | 1.07 | 1.07 | 93 | 1013.4 |
| 20260904205230 | 79 | 0 | 0.0 | 1.0 | 0.00 | 1.07 | 1.07 | 93 | 1013.4 |
| 20260904204734 | 79 | 309 | 1.0 | 4.0 | 0.01 | 1.07 | 1.07 | 93 | 1013.4 |
| 20260904204230 | 79 | 0 | 1.0 | 4.0 | 0.02 | 1.07 | 1.07 | 93 | 1013.4 |
| 20260904203729 | 78 | 308 | 1.0 | 4.0 | 0.03 | 1.07 | 1.07 | 93 | 1013.2 |
| 20260904203230 | 78 | 238 | 1.0 | 3.0 | 0.04 | 1.07 | 1.07 | 93 | 1013.0 |
| 20260904202730 | 78 | 0 | 1.0 | 3.0 | 0.19 | 1.07 | 1.07 | 93 | 1012.7 |
| 20260904201717 | 78 | 340 | 1.0 | 4.0 | 0.74 | 1.07 | 1.07 | 92 | 1012.6 |
| 20260904201218 | 78 | 24 | 2.0 | 4.0 | 0.91 | 1.07 | 1.07 | 92 | 1012.4 |
| 20260904200715 | 78 | 18 | 3.0 | 8.0 | 1.03 | 1.07 | 1.07 | 92 | 1012.6 |
| 20260904200205 | 78 | 18 | 4.0 | 8.0 | 1.06 | 1.07 | 1.07 | 92 | 1012.8 |
| 20260904195705 | 78 | 32 | 4.0 | 8.0 | 1.06 | 1.07 | 1.07 | 92 | 1012.8 |
| 20260904195205 | 78 | 33 | 4.0 | 8.0 | 1.06 | 1.07 | 1.07 | 92 | 1012.8 |
| 20260904194706 | 78 | 31 | 4.0 | 8.0 | 1.05 | 1.07 | 1.07 | 92 | 1013.1 |
| 20260904194205 | 78 | 159 | 4.0 | 10.0 | 1.04 | 1.05 | 1.05 | 92 | 1013.3 |
| 20260904193701 | 78 | 6 | 5.0 | 17.0 | 1.03 | 1.05 | 1.05 | 91 | 1013.3 |
| 20260904193203 | 78 | 75 | 9.0 | 25.0 | 1.02 | 1.04 | 1.04 | 91 | 1013.2 |
| 20260904192702 | 78 | 131 | 16.0 | 51.0 | 0.87 | 0.88 | 0.88 | 88 | 1013.2 |
| 20260904191702 | 79 | 141 | 8.0 | 17.0 | 0.31 | 0.33 | 0.33 | 88 | 1013.0 |
| 20260904191202 | 80 | 119 | 5.0 | 11.0 | 0.15 | 0.16 | 0.16 | 87 | 1012.9 |
| 20260904190701 | 81 | 80 | 4.0 | 11.0 | 0.03 | 0.04 | 0.04 | 85 | 1012.9 |
| 20260904190201 | 82 | 13 | 4.0 | 9.0 | 0.00 | 0.02 | 0.02 | 83 | 1012.9 |
| 20260904185702 | 82 | 24 | 4.0 | 9.0 | 0.00 | 0.02 | 0.02 | 84 | 1013.0 |
| 20260904185202 | 83 | 50 | 6.0 | 15.0 | 0.00 | 0.02 | 0.02 | 84 | 1013.0 |
| 20260904184701 | 85 | 10 | 5.0 | 15.0 | 0.01 | 0.02 | 0.02 | 84 | 1013.0 |
| 20260904184201 | 88 | 54 | 4.0 | 8.0 | 0.02 | 0.02 | 0.02 | 77 | 1013.1 |
| 20260904183701 | 88 | 35 | 3.0 | 6.0 | 0.02 | 0.02 | 0.02 | 74 | 1012.9 |
| 20260904183201 | 88 | 33 | 2.0 | 6.0 | 0.02 | 0.02 | 0.02 | 75 | 1012.8 |
| 20260904182701 | 88 | 46 | 3.0 | 8.0 | 0.02 | 0.02 | 0.02 | 77 | 1013.0 |
| 20260904182201 | 89 | 0 | 3.0 | 8.0 | 0.02 | 0.02 | 0.02 | 75 | 1013.2 |
| 20260904181701 | 91 | 282 | 3.0 | 7.0 | 0.02 | 0.02 | 0.02 | 74 | 1013.3 |
| 20260904180202 | 88 | 340 | 1.0 | 7.0 | 0.02 | 0.02 | 0.02 | 77 | 1013.1 |
| 20260904175701 | 86 | 0 | 1.0 | 6.0 | 0.02 | 0.02 | 0.02 | 83 | 1013.2 |
| 20260904175202 | 86 | 353 | 1.0 | 4.0 | 0.02 | 0.02 | 0.02 | 86 | 1013.2 |
| 20260904174701 | 87 | 231 | 1.0 | 4.0 | 0.01 | 0.01 | 0.01 | 80 | 1013.3 |
| 20260904174200 | 87 | 205 | 2.0 | 6.0 | 0.00 | 0.00 | 0.00 | 75 | 1013.3 |
| 20260904173700 | 88 | 0 | 2.0 | 6.0 | 0.00 | 0.00 | 0.00 | 73 | 1013.3 |
| 20260904173202 | 88 | 132 | 3.0 | 9.0 | 0.00 | 0.00 | 0.00 | 71 | 1013.3 |
| 20260904172700 | 88 | 166 | 4.0 | 9.0 | 0.00 | 0.00 | 0.00 | 74 | 1013.4 |
| 20260904172201 | 89 | 144 | 2.0 | 6.0 | 0.00 | 0.00 | 0.00 | 71 | 1013.5 |
| 20260904171700 | 88 | 0 | 1.0 | 5.0 | 0.00 | 0.00 | 0.00 | 74 | 1013.6 |
| 20260904171200 | 87 | 43 | 2.0 | 5.0 | 0.00 | 0.03 | 0.00 | 73 | 1013.6 |
| 20260904170701 | 88 | 92 | 1.0 | 5.0 | 0.00 | 0.06 | 0.00 | 74 | 1013.7 |
| 20260904170201 | 88 | 0 | 0.0 | 2.0 | 0.00 | 0.06 | 0.00 | 72 | 1013.8 |
| 20260904165701 | 87 | 0 | 2.0 | 6.0 | 0.00 | 0.06 | 0.00 | 73 | 1013.9 |
| 20260904165201 | 87 | 0 | 2.0 | 6.0 | 0.00 | 0.06 | 0.00 | 72 | 1014.1 |
| 20260904164700 | 87 | 63 | 1.0 | 6.0 | 0.00 | 0.06 | 0.00 | 75 | 1014.1 |
| 20260904163700 | 88 | 120 | 2.0 | 6.0 | 0.00 | 0.07 | 0.00 | 73 | 1014.3 |
| 20260904163201 | 87 | 270 | 2.0 | 6.0 | 0.00 | 0.07 | 0.00 | 72 | 1014.3 |
| 20260904162701 | 87 | 270 | 2.0 | 6.0 | 0.00 | 0.07 | 0.00 | 74 | 1014.4 |
| 20260904162201 | 87 | 163 | 2.0 | 6.0 | 0.00 | 0.07 | 0.00 | 75 | 1014.5 |
| 20260904161701 | 87 | 89 | 2.0 | 6.0 | 0.00 | 0.07 | 0.00 | 74 | 1014.5 |
| 20260904161200 | 87 | 0 | 2.0 | 6.0 | 0.00 | 0.07 | 0.00 | 75 | 1014.6 |
| 20260904160700 | 86 | 239 | 2.0 | 5.0 | 0.00 | 0.07 | 0.00 | 76 | 1014.6 |
| 20260904160201 | 86 | 84 | 2.0 | 5.0 | 0.00 | 0.07 | 0.00 | 76 | 1014.7 |
| 20260904155701 | 86 | 133 | 1.0 | 4.0 | 0.00 | 0.07 | 0.00 | 78 | 1014.8 |
| 20260904155201 | 85 | 25 | 2.0 | 4.0 | 0.00 | 0.07 | 0.00 | 79 | 1014.8 |
| 20260904154702 | 85 | 10 | 2.0 | 4.0 | 0.00 | 0.07 | 0.00 | 79 | 1014.9 |
| 20260904154205 | 86 | 105 | 2.0 | 4.0 | 0.00 | 0.07 | 0.00 | 79 | 1014.9 |
| 20260904153702 | 86 | 220 | 1.0 | 4.0 | 0.00 | 0.07 | 0.00 | 79 | 1014.8 |
| 20260904153201 | 85 | 278 | 0.0 | 3.0 | 0.00 | 0.07 | 0.00 | 79 | 1014.7 |
| 20260904152701 | 85 | 3 | 1.0 | 4.0 | 0.00 | 0.07 | 0.00 | 80 | 1014.6 |
| 20260904152201 | 84 | 0 | 2.0 | 4.0 | 0.00 | 0.07 | 0.00 | 81 | 1014.7 |
| 20260904151700 | 84 | 167 | 2.0 | 4.0 | 0.00 | 0.07 | 0.00 | 81 | 1014.8 |
| 20260904150700 | 83 | 118 | 3.0 | 6.0 | 0.00 | 0.07 | 0.00 | 83 | 1014.6 |
| 20260904150201 | 84 | 102 | 3.0 | 6.0 | 0.00 | 0.07 | 0.00 | 83 | 1014.6 |
| 20260904145701 | 84 | 152 | 2.0 | 6.0 | 0.00 | 0.07 | 0.00 | 82 | 1014.6 |
| 20260904145201 | 84 | 0 | 1.0 | 4.0 | 0.00 | 0.07 | 0.00 | 81 | 1014.5 |
| 20260904143701 | 84 | 0 | 1.0 | 3.0 | 0.00 | 0.07 | 0.00 | 82 | 1014.5 |
| 20260904143202 | 84 | 218 | 0.0 | 3.0 | 0.00 | 0.07 | 0.00 | 83 | 1014.6 |
| 20260904142701 | 83 | 0 | 1.0 | 4.0 | 0.00 | 0.07 | 0.00 | 85 | 1014.6 |
| 20260904142202 | 83 | 114 | 1.0 | 4.0 | 0.00 | 0.07 | 0.00 | 85 | 1014.5 |
| 20260904141702 | 83 | 0 | 0.0 | 3.0 | 0.00 | 0.07 | 0.00 | 85 | 1014.5 |
| 20260904141202 | 83 | 0 | 1.0 | 4.0 | 0.00 | 0.07 | 0.00 | 85 | 1014.4 |
| 20260904140701 | 83 | 167 | 1.0 | 4.0 | 0.00 | 0.07 | 0.00 | 85 | 1014.4 |
| 20260904140204 | 82 | 200 | 1.0 | 4.0 | 0.00 | 0.07 | 0.00 | 86 | 1014.4 |
| 20260904135702 | 82 | 138 | 0.0 | 4.0 | 0.00 | 0.07 | 0.00 | 87 | 1014.3 |
| 20260904134718 | 82 | 0 | 1.0 | 4.0 | 0.00 | 0.07 | 0.00 | 87 | 1014.3 |
| 20260904134201 | 81 | 103 | 2.0 | 4.0 | 0.00 | 0.07 | 0.00 | 87 | 1014.4 |
| 20260904132702 | 81 | 135 | 2.0 | 6.0 | 0.00 | 0.07 | 0.00 | 87 | 1014.4 |
| 20260904132202 | 81 | 122 | 2.0 | 6.0 | 0.00 | 0.07 | 0.00 | 88 | 1014.4 |
| 20260904131201 | 81 | 36 | 2.0 | 4.0 | 0.00 | 0.07 | 0.00 | 91 | 1014.4 |
| 20260904130702 | 80 | 9 | 1.0 | 4.0 | 0.00 | 0.07 | 0.00 | 93 | 1014.4 |
| 20260904130202 | 79 | 39 | 1.0 | 4.0 | 0.00 | 0.07 | 0.00 | 94 | 1014.4 |
| 20260904125702 | 79 | 47 | 1.0 | 3.0 | 0.00 | 0.07 | 0.00 | 95 | 1014.4 |
| 20260904125205 | 78 | 67 | 1.0 | 3.0 | 0.00 | 0.07 | 0.00 | 94 | 1014.3 |
| 20260904124702 | 78 | 178 | 1.0 | 3.0 | 0.00 | 0.07 | 0.00 | 94 | 1014.4 |
| 20260904124205 | 78 | 42 | 0.0 | 2.0 | 0.00 | 0.07 | 0.00 | 94 | 1014.4 |
| 20260904123702 | 78 | 0 | 0.0 | 1.0 | 0.00 | 0.07 | 0.00 | 94 | 1014.3 |
| 20260904123203 | 77 | 196 | 0.0 | 1.0 | 0.00 | 0.07 | 0.00 | 94 | 1014.2 |
| 20260904122702 | 77 | 0 | 1.0 | 3.0 | 0.00 | 0.07 | 0.00 | 94 | 1014.1 |
| 20260904122202 | 77 | 0 | 1.0 | 3.0 | 0.00 | 0.07 | 0.00 | 94 | 1014.1 |
| 20260904121202 | 77 | 0 | 0.0 | 0.0 | 0.00 | 0.07 | 0.00 | 94 | 1014.0 |
| 20260904120702 | 77 | 0 | 0.0 | 0.0 | 0.00 | 0.07 | 0.00 | 94 | 1014.0 |
| 20260904120202 | 77 | 0 | 0.0 | 1.0 | 0.00 | 0.07 | 0.00 | 94 | 1014.0 |
| 20260904115702 | 77 | 209 | 0.0 | 2.0 | 0.00 | 0.07 | 0.00 | 94 | 1013.9 |
| 20260904115202 | 76 | 214 | 0.0 | 2.0 | 0.00 | 0.07 | 0.00 | 94 | 1013.9 |
| 20260904114702 | 76 | 0 | 0.0 | 0.0 | 0.00 | 0.07 | 0.00 | 94 | 1013.8 |
| 20260904114202 | 76 | 0 | 0.0 | 1.0 | 0.00 | 0.07 | 0.00 | 94 | 1013.9 |
| 20260904113702 | 76 | 0 | 1.0 | 2.0 | 0.00 | 0.07 | 0.00 | 94 | 1013.9 |
| 20260904113203 | 76 | 200 | 1.0 | 2.0 | 0.00 | 0.07 | 0.00 | 94 | 1013.9 |
| 20260904112702 | 76 | 195 | 0.0 | 2.0 | 0.00 | 0.07 | 0.00 | 94 | 1013.9 |
| 20260904112202 | 76 | 0 | 0.0 | 0.0 | 0.00 | 0.07 | 0.00 | 94 | 1013.8 |
| 20260904111702 | 76 | 0 | 0.0 | 0.0 | 0.00 | 0.07 | 0.00 | 94 | 1013.7 |
| 20260904111205 | 76 | 0 | 0.0 | 0.0 | 0.00 | 0.07 | 0.00 | 94 | 1013.7 |
| 20260904110702 | 76 | 0 | 0.0 | 0.0 | 0.00 | 0.07 | 0.00 | 94 | 1013.6 |
| 20260904105703 | 76 | 0 | 0.0 | 2.0 | 0.00 | 0.07 | 0.00 | 94 | 1013.5 |
| 20260904105202 | 76 | 0 | 0.0 | 2.0 | 0.00 | 0.07 | 0.00 | 94 | 1013.4 |
| 20260904104702 | 76 | 0 | 0.0 | 1.0 | 0.00 | 0.07 | 0.00 | 94 | 1013.4 |
| 20260904104202 | 76 | 0 | 0.0 | 2.0 | 0.00 | 0.07 | 0.00 | 94 | 1013.4 |
| 20260904103202 | 76 | 0 | 0.0 | 2.0 | 0.00 | 0.07 | 0.00 | 94 | 1013.6 |
| 20260904102156 | 76 | 0 | 0.0 | 1.0 | 0.00 | 0.07 | 0.00 | 94 | 1013.5 |
| 20260904101655 | 76 | 0 | 0.0 | 1.0 | 0.00 | 0.07 | 0.00 | 93 | 1013.4 |
| 20260904101155 | 76 | 0 | 0.0 | 0.0 | 0.00 | 0.07 | 0.00 | 94 | 1013.4 |
| 20260904100656 | 76 | 0 | 0.0 | 0.0 | 0.00 | 0.07 | 0.00 | 94 | 1013.4 |
| 20260904100156 | 76 | 0 | 0.0 | 0.0 | 0.00 | 0.07 | 0.00 | 93 | 1013.4 |
| 20260904095656 | 76 | 0 | 0.0 | 0.0 | 0.00 | 0.07 | 0.00 | 93 | 1013.3 |
| 20260904094656 | 76 | 0 | 0.0 | 0.0 | 0.00 | 0.07 | 0.00 | 93 | 1013.2 |
| 20260904093655 | 76 | 0 | 0.0 | 0.0 | 0.00 | 0.07 | 0.00 | 93 | 1013.2 |
| 20260904093156 | 76 | 0 | 0.0 | 1.0 | 0.00 | 0.07 | 0.00 | 93 | 1013.1 |
| 20260904092656 | 76 | 0 | 0.0 | 2.0 | 0.00 | 0.07 | 0.00 | 93 | 1013.1 |
| 20260904092156 | 76 | 274 | 0.0 | 2.0 | 0.00 | 0.07 | 0.00 | 93 | 1013.1 |
| 20260904091156 | 76 | 0 | 0.0 | 1.0 | 0.00 | 0.07 | 0.00 | 93 | 1013.1 |
| 20260904090154 | 76 | 0 | 0.0 | 0.0 | 0.00 | 0.07 | 0.00 | 93 | 1013.1 |
| 20260904084643 | 77 | 8 | 1.0 | 2.0 | 0.00 | 0.07 | 0.00 | 92 | 1013.0 |
| 20260904084143 | 77 | 0 | 0.0 | 0.0 | 0.00 | 0.07 | 0.00 | 92 | 1013.0 |
| 20260904083629 | 77 | 0 | 0.0 | 0.0 | 0.00 | 0.07 | 0.00 | 92 | 1013.0 |
| 20260904083129 | 77 | 0 | 0.0 | 0.0 | 0.00 | 0.07 | 0.00 | 92 | 1013.0 |
| 20260904082629 | 77 | 0 | 0.0 | 1.0 | 0.00 | 0.07 | 0.00 | 92 | 1012.9 |
| 20260904082129 | 77 | 0 | 0.0 | 1.0 | 0.00 | 0.07 | 0.00 | 92 | 1012.9 |
| 20260904081628 | 77 | 0 | 0.0 | 1.0 | 0.00 | 0.07 | 0.00 | 92 | 1013.0 |
| 20260904081129 | 77 | 107 | 0.0 | 1.0 | 0.00 | 0.07 | 0.00 | 92 | 1013.0 |
| 20260904080629 | 77 | 0 | 0.0 | 0.0 | 0.00 | 0.07 | 0.00 | 92 | 1013.0 |
| 20260904080130 | 77 | 0 | 0.0 | 1.0 | 0.00 | 0.07 | 0.00 | 92 | 1013.0 |
| 20260904075629 | 77 | 0 | 0.0 | 1.0 | 0.00 | 0.07 | 0.00 | 92 | 1012.9 |
| 20260904075130 | 77 | 109 | 1.0 | 2.0 | 0.00 | 0.07 | 0.00 | 92 | 1013.0 |
| 20260904074629 | 77 | 0 | 1.0 | 2.0 | 0.00 | 0.07 | 0.00 | 92 | 1012.9 |
| 20260904074129 | 77 | 0 | 0.0 | 2.0 | 0.00 | 0.07 | 0.00 | 92 | 1012.9 |
| 20260904073629 | 77 | 0 | 1.0 | 3.0 | 0.00 | 0.07 | 0.00 | 92 | 1012.9 |
| 20260904073115 | 77 | 0 | 1.0 | 3.0 | 0.00 | 0.07 | 0.00 | 92 | 1012.9 |
| 20260904072619 | 77 | 86 | 1.0 | 2.0 | 0.00 | 0.07 | 0.00 | 92 | 1012.8 |
| 20260904072115 | 77 | 98 | 0.0 | 1.0 | 0.00 | 0.07 | 0.00 | 92 | 1012.9 |
| 20260904071615 | 77 | 0 | 0.0 | 1.0 | 0.00 | 0.07 | 0.00 | 92 | 1012.9 |
| 20260904070602 | 77 | 0 | 0.0 | 0.0 | 0.00 | 0.07 | 0.00 | 92 | 1012.9 |
| 20260904065600 | 77 | 0 | 0.0 | 0.0 | 0.00 | 0.07 | 0.00 | 92 | 1013.0 |
| 20260904065101 | 77 | 0 | 0.0 | 0.0 | 0.00 | 0.07 | 0.00 | 92 | 1013.0 |
| 20260904064603 | 78 | 0 | 0.0 | 0.0 | 0.00 | 0.07 | 0.00 | 92 | 1013.0 |
| 20260904064100 | 78 | 0 | 0.0 | 3.0 | 0.00 | 0.07 | 0.00 | 92 | 1013.0 |
| 20260904063601 | 78 | 0 | 1.0 | 3.0 | 0.00 | 0.07 | 0.00 | 92 | 1013.0 |
| 20260904063106 | 78 | 26 | 2.0 | 4.0 | 0.00 | 0.07 | 0.00 | 92 | 1013.0 |
| 20260904062600 | 78 | 39 | 1.0 | 4.0 | 0.00 | 0.07 | 0.00 | 92 | 1013.2 |
| 20260904062100 | 78 | 0 | 0.0 | 1.0 | 0.00 | 0.07 | 0.00 | 92 | 1013.2 |
| 20260904061559 | 78 | 0 | 0.0 | 2.0 | 0.00 | 0.07 | 0.00 | 92 | 1013.3 |
| 20260904061100 | 78 | 187 | 0.0 | 2.0 | 0.00 | 0.07 | 0.00 | 92 | 1013.3 |
| 20260904060559 | 78 | 87 | 0.0 | 1.0 | 0.00 | 0.07 | 0.00 | 91 | 1013.4 |
| 20260904060059 | 78 | 0 | 0.0 | 0.0 | 0.00 | 0.07 | 0.00 | 91 | 1013.4 |
| 20260904055559 | 78 | 0 | 0.0 | 0.0 | 0.00 | 0.07 | 0.00 | 91 | 1013.5 |